THY72M LTAT-LTFJ

Flight info

Callsign THY72M
Flight time 1h 15m
Altitude 36000
Route LTAT SID UREBO UT32 GEM UG8 GOBIT UL614 KUBER UG8 BAG UL614 PETAR UG8 TOKER STAR LTFJ
Aircraft B738/M-S/A

Departure

Time 2026-05-04 22:51
Airport Malatya Erhaç Airport (LTAT)

Arrival

Time 2026-05-05 00:06
Airport Istanbul Sabiha Gökçen International Airport (LTFJ)
Time Latitude Longitude Altitude Speed Heading
2026-05-04 22:32 38.44005 38.10419 2780 ft 0 kts 121°
2026-05-04 22:41 38.44011 38.10405 2780 ft 2 kts 122°
2026-05-04 22:41 38.44020 38.10388 2779 ft 2 kts 122°
2026-05-04 22:42 38.44029 38.10370 2780 ft 2 kts 131°
2026-05-04 22:42 38.44042 38.10358 2776 ft 2 kts 187°
2026-05-04 22:42 38.44050 38.10361 2780 ft 1 kts 216°
2026-05-04 22:42 38.44052 38.10362 2780 ft 0 kts 217°
2026-05-04 22:45 38.44049 38.10358 2780 ft 2 kts 228°
2026-05-04 22:46 38.44049 38.10330 2780 ft 5 kts 293°
2026-05-04 22:46 38.44090 38.10292 2780 ft 10 kts 329°
2026-05-04 22:46 38.44160 38.10239 2779 ft 12 kts 328°
2026-05-04 22:46 38.44233 38.10183 2778 ft 12 kts 332°
2026-05-04 22:47 38.44317 38.10121 2776 ft 15 kts 328°
2026-05-04 22:47 38.44409 38.10051 2775 ft 15 kts 329°
2026-05-04 22:47 38.44497 38.09985 2773 ft 14 kts 329°
2026-05-04 22:47 38.44585 38.09969 2770 ft 14 kts 47°
2026-05-04 22:48 38.44601 38.10097 2771 ft 17 kts 78°
2026-05-04 22:48 38.44632 38.10264 2768 ft 21 kts 77°
2026-05-04 22:48 38.44666 38.10447 2767 ft 21 kts 77°
2026-05-04 22:48 38.44729 38.10605 2767 ft 20 kts 29°
2026-05-04 22:49 38.44848 38.10559 2766 ft 20 kts 298°
2026-05-04 22:49 38.44838 38.10392 2766 ft 19 kts 256°
2026-05-04 22:49 38.44808 38.10230 2765 ft 18 kts 257°
2026-05-04 22:49 38.44775 38.10076 2766 ft 18 kts 241°
2026-05-04 22:50 38.44732 38.10027 2767 ft 0 kts 211°
2026-05-04 22:50 38.44592 38.09920 2772 ft 59 kts 211°
2026-05-04 22:50 38.44017 38.09473 2786 ft 129 kts 211°
2026-05-04 22:51 38.43102 38.08766 2923 ft 175 kts 210°
2026-05-04 22:51 38.42040 38.08021 3758 ft 175 kts 208°
2026-05-04 22:51 38.40962 38.07255 4668 ft 182 kts 210°
2026-05-04 22:51 38.39753 38.06623 5185 ft 195 kts 182°
2026-05-04 22:52 38.38504 38.07232 5773 ft 202 kts 136°
2026-05-04 22:52 38.37940 38.08889 6244 ft 218 kts 93°
2026-05-04 22:52 38.38421 38.10761 6698 ft 233 kts 56°
2026-05-04 22:52 38.39524 38.12329 7167 ft 244 kts 47°
2026-05-04 22:53 38.40876 38.13767 7564 ft 264 kts 26°
2026-05-04 22:53 38.42699 38.14160 8131 ft 271 kts 347°
2026-05-04 22:53 38.44375 38.13188 8950 ft 265 kts 317°
2026-05-04 22:53 38.45483 38.11370 9734 ft 258 kts 291°
2026-05-04 22:54 38.46231 38.09264 10381 ft 266 kts 289°
2026-05-04 22:54 38.47000 38.07046 10838 ft 281 kts 289°
2026-05-04 22:54 38.47805 38.04707 11293 ft 296 kts 288°
2026-05-04 22:54 38.48656 38.02237 11745 ft 311 kts 288°
2026-05-04 22:55 38.49535 37.99692 12196 ft 325 kts 288°
2026-05-04 22:55 38.50468 37.97001 12646 ft 338 kts 288°
2026-05-04 22:55 38.51439 37.94208 13112 ft 351 kts 288°
2026-05-04 22:55 38.52450 37.91307 13585 ft 363 kts 288°
2026-05-04 22:56 38.53495 37.88309 14001 ft 373 kts 288°
2026-05-04 22:56 38.54557 37.85262 14591 ft 377 kts 288°
2026-05-04 22:56 38.55627 37.82196 15356 ft 378 kts 288°
2026-05-04 22:56 38.56705 37.79106 16057 ft 382 kts 288°
2026-05-04 22:57 38.57789 37.75992 16697 ft 386 kts 287°
2026-05-04 22:57 38.58883 37.72838 17345 ft 390 kts 287°
2026-05-04 22:57 38.59989 37.69648 18006 ft 394 kts 287°
2026-05-04 22:57 38.61104 37.66427 18598 ft 398 kts 287°
2026-05-04 22:58 38.62228 37.63178 19174 ft 401 kts 287°
2026-05-04 22:58 38.63346 37.59943 19761 ft 404 kts 287°
2026-05-04 22:58 38.64486 37.56641 20334 ft 407 kts 287°
2026-05-04 22:58 38.65630 37.53323 20904 ft 410 kts 287°
2026-05-04 22:59 38.66784 37.49969 21448 ft 413 kts 287°
2026-05-04 22:59 38.67944 37.46594 21968 ft 417 kts 287°
2026-05-04 22:59 38.69118 37.43175 22495 ft 420 kts 287°
2026-05-04 22:59 38.70298 37.39737 23031 ft 423 kts 287°
2026-05-04 23:00 38.71486 37.36273 23496 ft 426 kts 287°
2026-05-04 23:00 38.72677 37.32790 23927 ft 429 kts 287°
2026-05-04 23:00 38.73880 37.29273 24361 ft 431 kts 287°
2026-05-04 23:00 38.75085 37.25745 24790 ft 433 kts 287°
2026-05-04 23:01 38.76296 37.22195 25218 ft 436 kts 287°
2026-05-04 23:01 38.77510 37.18631 25632 ft 438 kts 287°
2026-05-04 23:01 38.78737 37.15026 26015 ft 441 kts 286°
2026-05-04 23:01 38.79958 37.11410 26393 ft 443 kts 286°
2026-05-04 23:02 38.81171 37.07770 26760 ft 445 kts 286°
2026-05-04 23:02 38.82371 37.04144 27137 ft 448 kts 285°
2026-05-04 23:02 38.83588 37.00460 27490 ft 450 kts 285°
2026-05-04 23:02 38.84816 36.96737 27818 ft 453 kts 285°
2026-05-04 23:03 38.86049 36.92998 28133 ft 457 kts 285°
2026-05-04 23:03 38.87292 36.89230 28468 ft 460 kts 285°
2026-05-04 23:03 38.88539 36.85446 28758 ft 463 kts 285°
2026-05-04 23:03 38.89797 36.81628 29048 ft 466 kts 285°
2026-05-04 23:04 38.91064 36.77780 29319 ft 469 kts 285°
2026-05-04 23:04 38.92336 36.73910 29598 ft 472 kts 285°
2026-05-04 23:04 38.93611 36.70015 29895 ft 474 kts 285°
2026-05-04 23:04 38.94891 36.66113 30209 ft 474 kts 285°
2026-05-04 23:05 38.96171 36.62211 30552 ft 474 kts 285°
2026-05-04 23:05 38.97447 36.58314 30876 ft 474 kts 285°
2026-05-04 23:05 38.98724 36.54406 31183 ft 474 kts 285°
2026-05-04 23:05 38.99997 36.50500 31481 ft 474 kts 285°
2026-05-04 23:06 39.01256 36.46630 31783 ft 475 kts 285°
2026-05-04 23:06 39.02527 36.42718 32095 ft 475 kts 285°
2026-05-04 23:06 39.03803 36.38787 32415 ft 475 kts 285°
2026-05-04 23:06 39.05072 36.34871 32718 ft 475 kts 286°
2026-05-04 23:07 39.06341 36.30949 32988 ft 476 kts 286°
2026-05-04 23:07 39.07613 36.27011 33267 ft 476 kts 286°
2026-05-04 23:07 39.08882 36.23080 33582 ft 476 kts 286°
2026-05-04 23:07 39.10149 36.19148 33894 ft 475 kts 286°
2026-05-04 23:08 39.11415 36.15215 34122 ft 475 kts 286°
2026-05-04 23:08 39.12679 36.11279 34392 ft 474 kts 286°
2026-05-04 23:08 39.13937 36.07365 34723 ft 471 kts 286°
2026-05-04 23:08 39.15187 36.03467 35033 ft 469 kts 286°
2026-05-04 23:09 39.16405 35.99575 35282 ft 468 kts 285°
2026-05-04 23:09 39.17574 35.95668 35497 ft 467 kts 285°
2026-05-04 23:09 39.18724 35.91751 35754 ft 466 kts 285°
2026-05-04 23:09 39.19867 35.87832 35916 ft 468 kts 285°
2026-05-04 23:10 39.22157 35.80004 35904 ft 470 kts 285°
2026-05-04 23:10 39.24469 35.72152 35896 ft 465 kts 285°
2026-05-04 23:11 39.26760 35.64366 35897 ft 463 kts 285°
2026-05-04 23:11 39.29035 35.56602 35898 ft 462 kts 286°
2026-05-04 23:12 39.31306 35.48826 35893 ft 462 kts 286°
2026-05-04 23:12 39.33573 35.41045 35887 ft 463 kts 286°
2026-05-04 23:13 39.35820 35.33309 35897 ft 464 kts 286°
2026-05-04 23:13 39.38086 35.25483 35895 ft 465 kts 286°
2026-05-04 23:14 39.40356 35.17630 35895 ft 467 kts 287°
2026-05-04 23:14 39.42667 35.09761 35900 ft 468 kts 287°
2026-05-04 23:15 39.45003 35.01871 35898 ft 470 kts 287°
2026-05-04 23:15 39.47336 34.93958 35902 ft 471 kts 287°
2026-05-04 23:16 39.49273 34.87354 35897 ft 472 kts 287°
2026-05-04 23:16 39.51581 34.79458 35904 ft 472 kts 287°
2026-05-04 23:17 39.54292 34.70150 35896 ft 472 kts 287°
2026-05-04 23:17 39.56217 34.63522 35900 ft 472 kts 287°
2026-05-04 23:18 39.58912 34.54215 35898 ft 471 kts 287°
2026-05-04 23:18 39.61194 34.46309 35899 ft 470 kts 287°
2026-05-04 23:19 39.63108 34.39656 35899 ft 470 kts 288°
2026-05-04 23:19 39.65388 34.31712 35901 ft 470 kts 288°
2026-05-04 23:20 39.67659 34.23773 35905 ft 469 kts 288°
2026-05-04 23:20 39.69915 34.15865 35904 ft 469 kts 288°
2026-05-04 23:21 39.72177 34.07911 35909 ft 469 kts 288°
2026-05-04 23:21 39.74429 33.99966 35912 ft 469 kts 288°
2026-05-04 23:22 39.76686 33.91987 35911 ft 469 kts 288°
2026-05-04 23:22 39.78718 33.83987 35915 ft 468 kts 283°
2026-05-04 23:23 39.80297 33.75769 35920 ft 468 kts 282°
2026-05-04 23:23 39.81906 33.67540 35920 ft 468 kts 283°
2026-05-04 23:24 39.83631 33.59367 35916 ft 469 kts 287°
2026-05-04 23:24 39.85983 33.51434 35932 ft 470 kts 291°
2026-05-04 23:25 39.88442 33.43552 35924 ft 470 kts 290°
2026-05-04 23:25 39.90856 33.35623 35927 ft 470 kts 290°
2026-05-04 23:26 39.93229 33.27678 35933 ft 470 kts 290°
2026-05-04 23:26 39.95574 33.19774 35936 ft 470 kts 290°
2026-05-04 23:27 39.97931 33.11817 35938 ft 470 kts 290°
2026-05-04 23:27 40.00281 33.03862 35944 ft 470 kts 290°
2026-05-04 23:28 40.02631 32.95886 35940 ft 470 kts 290°
2026-05-04 23:28 40.04972 32.87917 35942 ft 470 kts 291°
2026-05-04 23:29 40.07222 32.79907 35925 ft 470 kts 285°
2026-05-04 23:29 40.08453 32.71535 35945 ft 469 kts 279°
2026-05-04 23:30 40.09545 32.63148 35944 ft 463 kts 282°
2026-05-04 23:30 40.10657 32.54979 35944 ft 456 kts 283°
2026-05-04 23:31 40.11795 32.46829 35959 ft 456 kts 283°
2026-05-04 23:31 40.12933 32.38657 35960 ft 457 kts 283°
2026-05-04 23:32 40.14064 32.30470 35957 ft 458 kts 283°
2026-05-04 23:32 40.15179 32.22333 35963 ft 458 kts 283°
2026-05-04 23:33 40.16300 32.14121 35966 ft 458 kts 284°
2026-05-04 23:33 40.17349 32.05894 35963 ft 460 kts 281°
2026-05-04 23:34 40.17935 31.97541 35971 ft 461 kts 278°
2026-05-04 23:34 40.18499 31.89184 35973 ft 461 kts 279°
2026-05-04 23:35 40.19322 31.80903 35974 ft 458 kts 283°
2026-05-04 23:35 40.20346 31.72737 35970 ft 458 kts 284°
2026-05-04 23:36 40.21365 31.64527 35984 ft 457 kts 283°
2026-05-04 23:36 40.22345 31.56311 35984 ft 456 kts 283°
2026-05-04 23:37 40.23306 31.48094 35756 ft 459 kts 283°
2026-05-04 23:37 40.23783 31.43981 35516 ft 456 kts 283°
2026-05-04 23:37 40.24256 31.39883 35275 ft 454 kts 284°
2026-05-04 23:38 40.24727 31.35797 35052 ft 454 kts 284°
2026-05-04 23:38 40.25198 31.31710 34541 ft 455 kts 284°
2026-05-04 23:38 40.25667 31.27609 33917 ft 455 kts 285°
2026-05-04 23:38 40.26137 31.23513 33195 ft 455 kts 285°
2026-05-04 23:39 40.26605 31.19411 32484 ft 455 kts 286°
2026-05-04 23:39 40.27067 31.15362 31791 ft 456 kts 286°
2026-05-04 23:39 40.27533 31.11248 31058 ft 457 kts 287°
2026-05-04 23:39 40.27996 31.07139 30490 ft 454 kts 287°
2026-05-04 23:40 40.28452 31.03068 29957 ft 450 kts 287°
2026-05-04 23:40 40.28903 30.99029 29344 ft 445 kts 287°
2026-05-04 23:40 40.29344 30.95046 28851 ft 438 kts 287°
2026-05-04 23:40 40.29785 30.91113 28310 ft 433 kts 287°
2026-05-04 23:41 40.30220 30.87235 27787 ft 429 kts 287°
2026-05-04 23:41 40.30649 30.83392 27306 ft 423 kts 287°
2026-05-04 23:41 40.31064 30.79619 27125 ft 411 kts 287°
2026-05-04 23:41 40.31465 30.75958 26855 ft 403 kts 287°
2026-05-04 23:42 40.31863 30.72342 26466 ft 400 kts 287°
2026-05-04 23:42 40.32262 30.68743 26125 ft 408 kts 287°
2026-05-04 23:42 40.32674 30.65032 25729 ft 415 kts 287°
2026-05-04 23:42 40.33087 30.61274 25359 ft 416 kts 286°
2026-05-04 23:43 40.33489 30.57540 24973 ft 412 kts 286°
2026-05-04 23:43 40.33888 30.53832 24590 ft 409 kts 286°
2026-05-04 23:43 40.34285 30.50152 24215 ft 407 kts 286°
2026-05-04 23:43 40.34680 30.46484 23853 ft 404 kts 286°
2026-05-04 23:44 40.34905 30.44060 23578 ft 406 kts 282°
2026-05-04 23:44 40.34894 30.39075 23018 ft 409 kts 274°
2026-05-04 23:44 40.34801 30.36613 22761 ft 408 kts 274°
2026-05-04 23:44 40.34604 30.31660 22217 ft 406 kts 274°
2026-05-04 23:45 40.34470 30.27977 21854 ft 403 kts 274°
2026-05-04 23:45 40.34349 30.24312 21465 ft 401 kts 274°
2026-05-04 23:45 40.34236 30.20667 21094 ft 399 kts 274°
2026-05-04 23:45 40.34128 30.17046 20734 ft 396 kts 274°
2026-05-04 23:46 40.34021 30.13449 20367 ft 394 kts 274°
2026-05-04 23:46 40.33916 30.09925 20013 ft 390 kts 274°
2026-05-04 23:46 40.33808 30.06395 19656 ft 384 kts 274°
2026-05-04 23:46 40.33700 30.02918 19310 ft 379 kts 274°
2026-05-04 23:47 40.33631 29.99484 18961 ft 373 kts 278°
2026-05-04 23:47 40.33876 29.96129 18625 ft 364 kts 284°
2026-05-04 23:47 40.34284 29.92892 18297 ft 358 kts 286°
2026-05-04 23:47 40.34723 29.89734 17934 ft 354 kts 286°
2026-05-04 23:48 40.35155 29.86573 17568 ft 350 kts 285°
2026-05-04 23:48 40.35560 29.83460 17275 ft 344 kts 285°
2026-05-04 23:48 40.35947 29.80379 16937 ft 341 kts 284°
2026-05-04 23:48 40.36319 29.77333 16617 ft 336 kts 284°
2026-05-04 23:49 40.36679 29.74326 16332 ft 332 kts 284°
2026-05-04 23:49 40.37031 29.71351 16023 ft 328 kts 284°
2026-05-04 23:49 40.37379 29.68396 15718 ft 325 kts 284°
2026-05-04 23:49 40.37722 29.65478 15423 ft 322 kts 283°
2026-05-04 23:50 40.38059 29.62587 15140 ft 319 kts 283°
2026-05-04 23:50 40.38389 29.59752 14851 ft 316 kts 283°
2026-05-04 23:50 40.38719 29.56913 14562 ft 314 kts 283°
2026-05-04 23:50 40.39046 29.54095 14276 ft 311 kts 283°
2026-05-04 23:51 40.39368 29.51307 13996 ft 308 kts 283°
2026-05-04 23:51 40.39689 29.48534 13700 ft 306 kts 283°
2026-05-04 23:51 40.40007 29.45772 13391 ft 304 kts 283°
2026-05-04 23:51 40.40321 29.43032 13100 ft 302 kts 283°
2026-05-04 23:52 40.40638 29.40318 12814 ft 299 kts 284°
2026-05-04 23:52 40.41008 29.37639 12539 ft 297 kts 285°
2026-05-04 23:52 40.41398 29.34977 12261 ft 296 kts 285°
2026-05-04 23:52 40.41786 29.32331 12007 ft 295 kts 285°
2026-05-04 23:53 40.42170 29.29688 11719 ft 294 kts 285°
2026-05-04 23:53 40.42549 29.27058 11438 ft 294 kts 285°
2026-05-04 23:53 40.42926 29.24424 11155 ft 293 kts 285°
2026-05-04 23:53 40.43300 29.21796 10882 ft 291 kts 285°
2026-05-04 23:54 40.43666 29.19218 10619 ft 290 kts 285°
2026-05-04 23:54 40.44032 29.16622 10353 ft 288 kts 285°
2026-05-04 23:54 40.44418 29.14059 10071 ft 281 kts 291°
2026-05-04 23:54 40.45319 29.11903 9801 ft 264 kts 319°
2026-05-04 23:55 40.46700 29.10403 9575 ft 254 kts 330°
2026-05-04 23:55 40.48189 29.09186 9327 ft 249 kts 333°
2026-05-04 23:55 40.51149 29.06915 8865 ft 246 kts 334°
2026-05-04 23:56 40.52623 29.05777 8640 ft 245 kts 333°
2026-05-04 23:56 40.54088 29.04637 8420 ft 244 kts 333°
2026-05-04 23:56 40.55547 29.03496 8198 ft 244 kts 333°
2026-05-04 23:56 40.57000 29.02353 7968 ft 244 kts 333°
2026-05-04 23:57 40.58457 29.01203 7758 ft 244 kts 333°
2026-05-04 23:57 40.59920 29.00048 7518 ft 246 kts 333°
2026-05-04 23:57 40.61381 28.98890 7278 ft 244 kts 333°
2026-05-04 23:57 40.62824 28.97746 7062 ft 241 kts 333°
2026-05-04 23:58 40.64252 28.96612 6837 ft 238 kts 333°
2026-05-04 23:58 40.65661 28.95491 6616 ft 235 kts 333°
2026-05-04 23:58 40.67058 28.94381 6409 ft 232 kts 333°
2026-05-04 23:58 40.68419 28.93299 6185 ft 231 kts 333°
2026-05-04 23:59 40.69788 28.92209 5974 ft 229 kts 333°
2026-05-04 23:59 40.71176 28.91163 5759 ft 230 kts 341°
2026-05-04 23:59 40.72742 28.90903 5534 ft 229 kts
2026-05-04 23:59 40.74228 28.91654 5333 ft 233 kts 30°
2026-05-05 00:00 40.75402 28.93162 5088 ft 241 kts 51°
2026-05-05 00:00 40.75710 28.93800 5024 ft 242 kts 54°
2026-05-05 00:00 40.77028 28.97075 4600 ft 243 kts 58°
2026-05-05 00:00 40.77793 28.99059 4339 ft 241 kts 58°
2026-05-05 00:01 40.78551 29.01009 4091 ft 237 kts 57°
2026-05-05 00:01 40.79310 29.02930 3856 ft 234 kts 56°
2026-05-05 00:01 40.80126 29.04763 3623 ft 230 kts 54°
2026-05-05 00:01 40.80890 29.06615 3393 ft 229 kts 57°
2026-05-05 00:02 40.81596 29.08490 3170 ft 227 kts 58°
2026-05-05 00:02 40.82304 29.10332 3018 ft 221 kts 58°
2026-05-05 00:02 40.82751 29.11521 2992 ft 214 kts 58°
2026-05-05 00:02 40.83573 29.13769 2993 ft 193 kts 58°
2026-05-05 00:03 40.84137 29.15310 2979 ft 187 kts 58°
2026-05-05 00:03 40.84712 29.16877 2735 ft 190 kts 58°
2026-05-05 00:03 40.85285 29.18446 2435 ft 189 kts 59°
2026-05-05 00:03 40.85668 29.19494 2232 ft 184 kts 59°
2026-05-05 00:04 40.86381 29.21448 1871 ft 172 kts 59°
2026-05-05 00:04 40.86721 29.22377 1698 ft 165 kts 59°
2026-05-05 00:04 40.87360 29.24122 1346 ft 152 kts 60°
2026-05-05 00:04 40.87662 29.24947 1201 ft 148 kts 61°
2026-05-05 00:05 40.88114 29.26176 945 ft 147 kts 62°
2026-05-05 00:05 40.88550 29.27370 699 ft 143 kts 63°
2026-05-05 00:05 40.89126 29.28926 407 ft 139 kts 63°
2026-05-05 00:05 40.89398 29.29676 325 ft 133 kts 64°
2026-05-05 00:06 40.89746 29.30625 322 ft 94 kts 64°
2026-05-05 00:06 40.89998 29.31311 318 ft 57 kts 64°
2026-05-05 00:06 40.90117 29.31565 319 ft 27 kts 46°
2026-05-05 00:06 40.90192 29.31653 318 ft 5 kts 35°
2026-05-05 00:07 40.90219 29.31677 317 ft 5 kts 34°
2026-05-05 00:07 40.90244 29.31700 319 ft 4 kts 34°
2026-05-05 00:07 40.90270 29.31723 318 ft 4 kts 34°
2026-05-05 00:07 40.90300 29.31750 319 ft 7 kts 34°
2026-05-05 00:08 40.90359 29.31803 319 ft 14 kts 35°
2026-05-05 00:08 40.90430 29.31917 319 ft 19 kts 63°
2026-05-05 00:08 40.90524 29.31976 320 ft 17 kts 335°
2026-05-05 00:08 40.90608 29.31934 320 ft 12 kts
2026-05-05 00:09 40.90687 29.31924 320 ft 11 kts 334°
2026-05-05 00:09 40.90701 29.31915 320 ft 0 kts 334°